User: anonymous   Login
Location: Caltech
(34.1382°N, 118.1253°W)
Time: 14:23:52
(UTC-07:00)
Language:

Cosmos 1833 - Orbit

View from above orbital plane
View from above orbital plane
View from above satellite
View from above satellite

Ground track
Ground track

The orbit data is extracted from the following two-line orbital elements,

1 17589U 87027A   17118.92881184 +.00000296 +00000-0 +18409-3 0  9995
2 17589 070.9197 288.2553 0026842 024.9520 335.2892 14.12890551553115
Epoch (UTC): 28 April 2017 22:17:29
Eccentricity: 0.0026842
inclination: 70.9197°
perigee height: 830 km
apogee height: 869 km
right ascension of ascending node: 288.2553°
argument of perigee: 24.9520°
revolutions per day: 14.12890551
mean anomaly at epoch: 335.2892°
orbit number at epoch: 55311

The dashed part of the orbit path shows where the satellite is in the earth's shadow,  

DLR